LKLN Weather Reports


Display with metric or nautical units.
time (UTC)temp
F
wind
direction
speed
MPH
gust
MPH
rain 1hr
in
rain 24hr
in
rain mn
in
humidity
%
barometer
mb
20260505092803 72 0 1.0 0.0 0.00 0.00 0.00 46 1008.0
20260505085804 70 0 2.0 0.0 0.00 0.00 0.00 46 1008.0
20260505082804 68 0 2.0 0.0 0.00 0.00 0.00 49 1008.0
20260505075804 68 0 2.0 0.0 0.00 0.00 0.00 52 1008.0
20260505072803 66 0 1.0 0.0 0.00 0.00 0.00 52 1009.0
20260505065804 64 90 3.0 0.0 0.00 0.00 0.00 59 1009.0
20260505062805 63 80 5.0 0.0 0.00 0.00 0.00 63 1009.0
20260505055804 61 40 3.0 0.0 0.00 0.00 0.00 67 1009.0
20260505052804 59 0 2.0 0.0 0.00 0.00 0.00 72 1009.0
20260505035804 57 0 2.0 0.0 0.00 0.00 0.00 71 1009.0
20260505032804 57 0 1.0 0.0 0.00 0.00 0.00 71 1009.0
20260505025905 55 0 2.0 0.0 0.00 0.00 0.00 76 1009.0
20260505022804 55 0 0.0 0.0 0.00 0.00 0.00 76 1009.0
20260505015804 57 0 0.0 0.0 0.00 0.00 0.00 71 1010.0
20260505012804 57 0 0.0 0.0 0.00 0.00 0.00 67 1010.0
20260505005804 57 0 2.0 0.0 0.00 0.00 0.00 67 1010.0
20260505002805 59 280 1.0 0.0 0.00 0.00 0.00 62 1010.0
20260504235805 59 0 2.0 0.0 0.00 0.00 0.00 62 1010.0
20260504232805 63 10 3.0 0.0 0.00 0.00 0.00 55 1011.0
20260504225804 61 20 3.0 0.0 0.00 0.00 0.00 59 1011.0
20260504222804 61 0 2.0 0.0 0.00 0.00 0.00 59 1011.0
20260504215804 63 0 2.0 0.0 0.00 0.00 0.00 55 1011.0
20260504212803 64 0 2.0 0.0 0.00 0.00 0.00 52 1011.0
20260504205805 66 20 3.0 0.0 0.00 0.00 0.00 48 1011.0
20260504202803 66 40 3.0 0.0 0.00 0.00 0.00 45 1011.0
20260504195805 66 0 2.0 0.0 0.00 0.00 0.00 42 1011.0
20260504192804 68 0 2.0 0.0 0.00 0.00 0.00 40 1011.0
20260504185804 68 0 2.0 0.0 0.00 0.00 0.00 40 1011.0
20260504182804 68 0 2.0 0.0 0.00 0.00 0.00 40 1011.0
20260504175804 72 0 1.0 0.0 0.00 0.00 0.00 33 1011.0
20260504172803 73 0 2.0 0.0 0.00 0.00 0.00 33 1011.0